Regional Weather Roundup
Issued by NWS

Home | Current Version | Previous Version | Text Only | Print | Product List | Glossary Off
Versions: 1 2 3 4 5 6 7 8 9 10 11 12 13 14 15 16 17 18 19 20 21 22 23 24 25 26 27 28 29 30 31 32 33 34 35 36 37 38 39 40 41 42 43 44 45 46 47 48 49 50

000
ASUS43 KOAX 311510
RWRNE

WEATHER ROUNDUP FOR NEBRASKA
NATIONAL WEATHER SERVICE OMAHA NE
900 AM CST SAT JAN 31 2015

NOTES: SATELLITE DATA IS BEING USED TO AUGMENT CLOUD COVER ABOVE
       12000 FEET.
       "FAIR" INDICATES FEW OR NO CLOUDS BELOW 12,000 FEET WITH NO
       SIGNIFICANT WEATHER AND/OR OBSTRUCTIONS TO VISIBILITY.

  * THESE STATIONS DO NOT REPORT WEATHER SUCH AS RAIN...SNOW OR FOG.

NEZ001>004-019>022-054>056-311600-
NEBRASKA PANHANDLE

CITY           SKY/WX    TMP DP  RH WIND       PRES   REMARKS
SCOTTSBLUFF    CLOUDY    34  26  72 CALM      29.94S
ALLIANCE       CLOUDY    32  27  81 N6        29.93S WCI  26
CHADRON        CLOUDY    27  23  85 CALM      29.99S
KIMBALL        LGT SNOW  32  28  86 N7        29.90S WCI  25
SIDNEY         LGT SNOW  31  29  92 N7        29.91F FOG     WCI  24
$$

NEZ057>060-069>072-079>082-311600-
SOUTHWEST NEBRASKA

CITY           SKY/WX    TMP DP  RH WIND       PRES   REMARKS
NORTH PLATTE   CLOUDY    33  30  88 SE7       29.96F WCI  27
IMPERIAL       FOG       33  31  92 E7        29.93F VSB<1/4 WCI  27
LEXINGTON      LGT SNOW  33  32  96 S8        29.99F WCI  26
MCCOOK         FOG       34  32  92 E7        29.96S VSB 3/4 WCI  28
OGALLALA       FOG       33  33  99 E5        29.95R VSB 1/2 WCI  28
$$

NEZ005>010-023>029-035>040-094-311600-
NORTH CENTRAL NEBRASKA

CITY           SKY/WX    TMP DP  RH WIND       PRES   REMARKS
VALENTINE      CLOUDY    29  25  85 NE13      30.02R WCI  19
AINSWORTH      CLOUDY    30  28  90 E8        30.01R WCI  23
BROKEN BOW     CLOUDY    34  31  88 SE5       29.99F WCI  30
O`NEILL        CLOUDY    34  33  96 N5        30.04S WCI  30
ORD            CLOUDY    34  31  88 S5        30.02F WCI  30
THEDFORD       FOG       35  34  98 SE3       29.97F VSB<1/4
$$

NEZ041-046>049-061>064-073>077-083>087-311600-
SOUTH CENTRAL NEBRASKA

CITY           SKY/WX    TMP DP  RH WIND       PRES   REMARKS
GRAND ISLAND   LGT SNOW  32  31  96 S9        30.06F FOG     WCI  24
AURORA         LGT SNOW  33  33 100 S9        30.07S WCI  25
HASTINGS       LGT SNOW  32  31  96 S10       30.04F FOG     WCI  24
HEBRON         LGT SNOW  33  32  95 S12       30.11S WCI  24
HOLDREGE       CLOUDY    32  31  96 S10       30.00F FOG     WCI  24
KEARNEY *      CLOUDY    32  30  93 S8        30.02F WCI  25
YORK           MIX PCPN  32  32 100 S12       30.09S WCI  23
$$

NEZ011>018-030>034-042>045-311600-
NORTHEAST NEBRASKA

CITY           SKY/WX    TMP DP  RH WIND       PRES   REMARKS
NORFOLK        CLOUDY    36  33  89 S9        30.07S WCI  29
ALBION         CLOUDY    35  31  87 S6        30.06F WCI  30
BLAIR          LGT RAIN  37  34  89 S13       30.13S WCI  29
COLUMBUS *     CLOUDY    36  28  75 S10       30.11S WCI  28
FREMONT        CLOUDY    37  35  92 S12G18    30.13S WCI  29
TEKAMAH        CLOUDY    37  33  85 S10       30.14S WCI  30
WAYNE          CLOUDY    37  33  89 SW8       30.09S WCI  30
$$

NEZ050>053-065>068-078-088>093-311600-
SOUTHEAST NEBRASKA

CITY           SKY/WX    TMP DP  RH WIND       PRES   REMARKS
LINCOLN        MIX PCPN  33  32  96 S8        30.14F FOG     WCI  26
OMAHA EPPLEY   LGT RAIN  37  34  89 S10       30.16S WCI  30
BEATRICE       LGT SNOW  33  32  99 S10       30.14F WCI  24
FALLS CITY     RAIN      34  33  96 S5        30.20F FOG     WCI  30
NEBRASKA CITY  LGT RAIN  34  34  99 S14       30.17S WCI  25
PLATTSMOUTH    LGT SNOW  33  32  95 S10       30.16S WCI  25
$$

NEZ044-045-051>053-067-311600-
OMAHA AREA

CITY           SKY/WX    TMP DP  RH WIND       PRES   REMARKS
OMAHA EPPLEY   LGT RAIN  37  34  89 S10       30.16S WCI  30
BLAIR          LGT RAIN  37  34  89 S13       30.13S WCI  29
FREMONT        CLOUDY    37  35  92 S12G18    30.13S WCI  29
MILLARD        LGT RAIN  36  33  90 S7        30.15S WCI  30
OFFUTT AFB     FLURRIES  36  32  87 S7        30.16S WCI  30
PLATTSMOUTH    LGT SNOW  33  32  95 S10       30.16S WCI  25
WAHOO          LGT RAIN  35  32  90 S10       30.13F WCI  27
$$


USA.gov is the U.S. government's official web portal to all federal, state and local government web resources and services.